{"data":{"norad_id":68116,"intl_designator":"2026-044R","name":"STARLINK-36805","alt_names":[],"object_type":"PAYLOAD","status":"ACTIVE","operator":null,"country":"US","launch_date":"2026-03-08","launch_site_code":"AFWTR","launch_vehicle":null,"mission":null,"orbit_class":"UNKNOWN","rcs_meters":null,"size_class":null,"mass_kg":null,"dimensions":null,"purposes":["comms"],"wikipedia_slug":null,"has_3d_model":false,"image_url":null,"decayed_at":null,"tle_current":{"epoch":"2026-05-24T21:32:20.847264Z","epoch_age_seconds":90854,"freshness":"FRESH","line1":"1 68116U 26044R   26144.89746351  .00015824  00000+0  49128-3 0  9994","line2":"2 68116  97.2849 105.5541 0001525  96.9018 263.2398 15.33454942 13265","mean_motion":15.33454942,"eccentricity":0.0001525,"inclination_deg":97.2849,"raan_deg":105.5541,"arg_perigee_deg":96.9018,"mean_anomaly_deg":263.2398,"bstar":0.00049128,"rev_number":1326,"period_min":93.905595825456,"perigee_km":464.46993752512,"apogee_km":466.55725095636,"semimajor_km":6843.6505942407,"source":"CELESTRAK","updated_at":"2026-05-25T13:38:21.843918Z"}}}